DW6276 Weather Reports


time (UTC)temp
C
wind
direction
speed
KPH
gust
KPH
rain 1hr
cm
rain 24hr
cm
rain mn
cm
humidity
%
barometer
mb
20260507084016 -2 0.0 0.0 0.00 0.00 0.00 82 1013.8
20260507083016 -2 0.0 0.0 0.00 0.00 0.00 82 1013.8
20260507082016 -2 0.0 0.0 0.00 0.00 0.00 81 1013.8
20260507081036 -2 0.0 0.0 0.00 0.00 0.00 80 1013.9
20260507080016 -2 0.0 0.0 0.00 0.00 0.00 81 1013.8
20260507075016 -2 0.0 0.0 0.00 0.00 0.00 80 1013.7
20260507074016 -2 0.0 0.0 0.00 0.00 0.00 80 1013.7
20260507073016 -2 0.0 0.0 0.00 0.00 0.00 79 1013.9
20260507072036 -1 0.0 0.0 0.00 0.00 0.00 79 1014.0
20260507071036 -1 0.0 0.0 0.00 0.00 0.00 78 1014.0
20260507070016 -1 0.0 0.0 0.00 0.00 0.00 78 1014.3
20260507065016 -1 0.0 0.0 0.00 0.00 0.00 77 1014.2
20260507064036 -1 0.0 0.0 0.00 0.00 0.00 77 1014.3
20260507063016 0 0.0 0.0 0.00 0.00 0.00 77 1014.6
20260507062016 0 0.0 0.0 0.00 0.00 0.00 77 1014.7
20260507061016 0 0.0 0.0 0.00 0.00 0.00 77 1014.7
20260507060016 0 0.0 0.0 0.00 0.00 0.00 76 1014.8
20260507055016 0 0.0 3.2 0.00 0.00 0.00 76 1014.8
20260507054016 0 0.0 0.0 0.00 0.00 0.00 75 1014.7
20260507053056 0 0.0 0.0 0.00 0.00 0.00 74 1014.8
20260507052016 0 0.0 0.0 0.00 0.00 0.00 73 1014.8
20260507051016 0 0.0 0.0 0.00 0.00 0.00 75 1014.8
20260507050016 0 0.0 0.0 0.00 0.00 0.00 71 1014.8
20260507045017 0 0.0 0.0 0.00 0.00 0.00 71 1014.8
20260507044016 0 0.0 0.0 0.00 0.00 0.00 71 1014.9
20260507043036 0 0.0 3.2 0.00 0.00 0.00 71 1014.8
20260507042016 0 0.0 0.0 0.00 0.00 0.00 70 1014.9
20260507041016 0 23 1.6 1.6 0.00 0.00 0.00 70 1014.9
20260507040016 0 0.0 0.0 0.00 0.00 0.00 72 1015.0
20260507035016 0 0.0 0.0 0.00 0.00 0.00 71 1015.1
20260507034036 0 0.0 0.0 0.00 0.00 0.00 70 1015.1
20260507033016 1 0.0 0.0 0.00 0.00 0.00 68 1015.1
20260507032016 1 0.0 0.0 0.00 0.00 0.00 68 1015.1
20260507031016 1 0.0 0.0 0.00 0.00 0.00 66 1015.3
20260507030016 2 0.0 0.0 0.00 0.00 0.00 63 1015.3
20260507025016 2 0.0 3.2 0.00 0.00 0.00 62 1015.3
20260507024016 3 0.0 3.2 0.00 0.00 0.00 60 1015.4
20260507023036 3 23 1.6 1.6 0.00 0.00 0.00 60 1015.3
20260507022016 4 23 1.6 3.2 0.00 0.00 0.00 59 1015.4
20260507021016 5 0.0 0.0 0.00 0.00 0.00 57 1015.3
20260507020016 5 0.0 1.6 0.00 0.00 0.00 56 1015.3
20260507015016 5 0.0 1.6 0.00 0.00 0.00 54 1015.1
20260507014016 6 0.0 1.6 0.00 0.00 0.00 51 1015.2
20260507013016 6 0.0 3.2 0.00 0.00 0.00 50 1015.2
20260507012016 6 0.0 1.6 0.00 0.00 0.00 50 1015.3
20260507011016 6 0 1.6 3.2 0.00 0.00 0.00 49 1015.2
20260507010016 6 338 3.2 4.8 0.00 0.00 0.00 48 1015.3
20260507005056 7 0 6.4 11.3 0.00 0.00 0.00 47 1015.3
20260507004016 7 338 8.0 11.3 0.00 0.00 0.00 45 1015.3
20260507003016 7 338 9.7 14.5 0.00 0.00 0.00 44 1015.3
20260507002016 7 338 11.3 16.1 0.00 0.00 0.00 43 1015.3
20260507001016 8 0 14.5 19.3 0.00 0.00 0.00 43 1015.4
20260507000016 8 338 12.9 19.3 0.00 0.00 0.00 43 1015.5
20260506235016 8 338 9.7 19.3 0.00 0.00 0.00 43 1015.5
20260506234016 8 0 12.9 19.3 0.00 0.00 0.00 43 1015.6
20260506233016 8 338 14.5 20.9 0.00 0.00 0.00 43 1015.7
20260506232016 8 315 12.9 20.9 0.00 0.00 0.00 43 1015.7
20260506231016 8 315 14.5 25.7 0.00 0.00 0.00 43 1015.9
20260506230036 8 293 9.7 12.9 0.00 0.00 0.00 43 1015.8
20260506225036 8 0 16.1 25.7 0.00 0.00 0.00 43 1015.8
20260506224016 8 315 12.9 17.7 0.00 0.00 0.00 43 1015.8
20260506223016 8 293 19.3 29.0 0.00 0.00 0.00 42 1015.8
20260506222016 8 315 12.9 19.3 0.00 0.00 0.00 43 1015.8
20260506221016 8 338 12.9 20.9 0.00 0.00 0.00 42 1015.8
20260506220015 8 315 16.1 22.5 0.00 0.00 0.00 43 1015.8
20260506215016 8 0 14.5 29.0 0.00 0.00 0.00 43 1015.8
20260506214015 8 315 19.3 29.0 0.00 0.00 0.00 42 1015.8
20260506213016 8 315 12.9 22.5 0.00 0.00 0.00 43 1016.0
20260506212016 8 315 17.7 29.0 0.00 0.00 0.00 42 1016.0
20260506211016 9 0 17.7 24.1 0.00 0.00 0.00 41 1016.0
20260506210015 8 0 14.5 22.5 0.00 0.00 0.00 42 1016.1
20260506205016 8 315 16.1 27.4 0.00 0.00 0.00 42 1016.2
20260506204035 8 0 12.9 24.1 0.00 0.00 0.00 42 1016.3
20260506203016 8 315 16.1 24.1 0.00 0.00 0.00 44 1016.3
20260506202015 7 338 16.1 24.1 0.00 0.00 0.00 44 1016.5
20260506201015 7 0 16.1 27.4 0.00 0.00 0.00 45 1016.6
20260506200036 8 293 11.3 22.5 0.00 0.00 0.00 45 1016.7
20260506195015 8 315 16.1 27.4 0.00 0.00 0.00 44 1016.9
20260506194015 7 338 17.7 25.7 0.00 0.00 0.00 45 1016.8
20260506193015 7 338 17.7 30.6 0.00 0.00 0.00 45 1016.8
20260506192016 7 315 17.7 27.4 0.00 0.00 0.00 45 1016.8
20260506191015 6 315 19.3 27.4 0.00 0.00 0.00 46 1016.9
20260506190015 6 293 17.7 24.1 0.00 0.00 0.00 46 1016.9
20260506185016 6 315 16.1 24.1 0.00 0.00 0.00 48 1016.9
20260506184055 6 315 12.9 20.9 0.00 0.00 0.00 48 1017.0
20260506183015 6 315 11.3 17.7 0.00 0.00 0.00 51 1017.1
20260506182015 6 338 11.3 16.1 0.00 0.00 0.00 51 1017.1
20260506181015 6 338 14.5 19.3 0.00 0.00 0.00 52 1017.1
20260506180015 5 293 14.5 19.3 0.00 0.00 0.00 52 1017.2
20260506175015 5 315 16.1 22.5 0.00 0.00 0.00 52 1017.3
20260506174015 5 315 12.9 20.9 0.00 0.00 0.00 51 1017.3
20260506173015 5 338 11.3 17.7 0.00 0.00 0.00 51 1017.4
20260506172015 5 315 12.9 19.3 0.00 0.00 0.00 52 1017.5
20260506171017 5 338 14.5 20.9 0.00 0.00 0.00 51 1017.6
20260506170017 5 315 14.5 24.1 0.00 0.00 0.00 51 1017.5
20260506165037 5 293 12.9 19.3 0.00 0.00 0.00 53 1017.7
20260506164017 5 315 12.9 19.3 0.00 0.00 0.00 53 1017.8
20260506163017 5 315 11.3 17.7 0.00 0.00 0.00 54 1017.8
20260506162037 5 315 11.3 14.5 0.00 0.00 0.00 54 1017.7
20260506161037 5 315 9.7 14.5 0.00 0.00 0.00 55 1017.7
20260506160017 4 315 11.3 17.7 0.00 0.00 0.00 55 1017.7
20260506155037 4 315 11.3 19.3 0.00 0.00 0.00 55 1017.7
20260506154017 4 293 9.7 12.9 0.00 0.00 0.00 56 1017.7
20260506153017 4 315 9.7 12.9 0.00 0.00 0.00 55 1017.5
20260506152017 3 338 8.0 12.9 0.00 0.00 0.00 56 1017.6
20260506151017 3 338 6.4 9.7 0.00 0.00 0.00 57 1017.6
20260506150017 3 293 6.4 8.0 0.00 0.00 0.00 58 1017.6
20260506145017 3 338 6.4 11.3 0.00 0.00 0.00 58 1017.6
20260506144017 3 338 6.4 11.3 0.00 0.00 0.00 58 1017.6
20260506143017 3 315 6.4 9.7 0.00 0.00 0.00 59 1017.5
20260506142017 3 0 6.4 9.7 0.00 0.00 0.00 61 1017.7
20260506141017 3 338 6.4 11.3 0.00 0.00 0.00 61 1017.7
20260506140017 3 338 4.8 9.7 0.00 0.00 0.00 62 1017.6
20260506135017 2 338 4.8 9.7 0.00 0.00 0.00 65 1017.6
20260506134017 2 338 4.8 8.0 0.00 0.00 0.00 66 1017.5
20260506133017 2 315 4.8 6.4 0.00 0.00 0.00 70 1017.5
20260506132037 2 293 3.2 4.8 0.00 0.00 0.00 72 1017.5
20260506131017 2 270 3.2 4.8 0.00 0.00 0.00 72 1017.4
20260506130017 1 293 3.2 3.2 0.00 0.00 0.00 73 1017.3
20260506125057 1 293 3.2 4.8 0.00 0.00 0.00 73 1017.1
20260506124017 1 293 1.6 4.8 0.00 0.00 0.00 75 1017.1
20260506123016 1 270 1.6 3.2 0.00 0.00 0.00 76 1017.0
20260506122017 1 270 1.6 1.6 0.00 0.00 0.00 76 1016.7
20260506121016 0 0.0 3.2 0.00 0.00 0.00 76 1016.4
20260506120056 0 0.0 3.2 0.00 0.00 0.00 77 1016.3
20260506115016 0 225 3.2 4.8 0.00 0.00 0.00 77 1016.3
20260506114036 0 0.0 3.2 0.00 0.00 0.00 77 1016.0
20260506113017 0 270 1.6 3.2 0.00 0.00 0.00 78 1015.9
20260506112016 0 225 1.6 1.6 0.00 0.00 0.00 78 1015.7
20260506111016 0 0.0 3.2 0.00 0.00 0.00 77 1015.5
20260506110016 0 225 3.2 3.2 0.00 0.00 0.00 77 1015.6
20260506105017 0 0.0 3.2 0.00 0.00 0.00 78 1015.6
20260506104016 0 0.0 1.6 0.00 0.00 0.00 79 1015.6
20260506103016 0 0.0 0.0 0.00 0.00 0.00 79 1015.7
20260506102017 0 270 1.6 1.6 0.00 0.00 0.00 81 1015.8
20260506101016 0 270 1.6 3.2 0.00 0.00 0.00 82 1015.7
20260506100016 -1 248 1.6 3.2 0.00 0.00 0.00 82 1015.6
20260506095016 -1 248 1.6 1.6 0.00 0.00 0.00 83 1015.4
20260506094016 -2 0.0 0.0 0.00 0.00 0.00 82 1015.1
20260506093016 -2 0.0 0.0 0.00 0.00 0.00 82 1015.1
20260506092016 -2 0.0 0.0 0.00 0.00 0.00 82 1015.2
20260506091037 -3 0.0 0.0 0.00 0.00 0.00 80 1015.0
20260506090016 -3 248 1.6 3.2 0.00 0.00 0.00 78 1015.0
20260506085016 -2 248 1.6 3.2 0.00 0.00 0.00 78 1015.1